Weather observations for the past three days for
Dodge City, Dodge City Regional Airport
Imperial (Metric)
Date Time (cdt) Wind (mph) Vis. (mi.) Weather Sky Cond. Temperature (ºF) Relative Humidity Wind Chill (°F) Heat Index (°F) Pressure Precipitation (in)
Air Dwpt 6 hour altimeter (in) sea level (mb) 1 hr 3 hr 6 hr
Max. Min.
17 03:52 W 7 10.00 A Few Clouds FEW070 69.1 64 84% 30.08 1015.2 0.01
17 02:52 SW 3 10.00 Partly Cloudy FEW100 SCT120 70 62.1 76% 30.05 1013.9
17 01:52 SW 8 10.00 Light Rain FEW070 SCT090 68 64 87% 30.02 1013.1 0.01
17 00:52 W 13 10.00 Light Rain FEW070 SCT090 BKN110 68 64 95 64.9 87% 30.07 1014.8 0.07 0.62
16 23:52 W 20 G 29 2.00 Thunderstorm Heavy Rain Fog/Mist OVC046 66.9 64.9 93% 30.1 1015.9 0.55
16 22:52 W 20 G 44 8.00 Thunderstorm Light Rain FEW015 BKN035 BKN065 71.1 64 79% 30.11 1016.3
16 21:52 E 14 G 26 10.00 Thunderstorm in Vicinity CLR 73.9 64 71% 30.01 1013.0
16 20:52 E 16 G 23 9.00 Thunderstorm in Vicinity SCT070 87.1 66 50% 89 29.96 1010.9
16 19:52 NE 13 10.00 Fair CLR 93 62.1 36% 94 29.93 1009.9
16 18:52 NE 12 10.00 Fair CLR 95 60.1 97 91.9 31% 95 29.93 1009.6
16 17:52 NE 10 10.00 Fair CLR 96.1 64 35% 98 29.92 1009.4
16 16:52 N 7 10.00 Fair CLR 96.1 64 35% 98 29.93 1009.7
16 15:52 N 8 10.00 Fair CLR 95 64.9 37% 98 29.95 1010.2
16 14:52 N 9 10.00 Fair CLR 95 64.9 37% 98 29.96 1010.4
16 13:52 NW 7 10.00 Fair CLR 93.9 64 37% 96 29.97 1010.7
16 12:52 N 7 10.00 Fair CLR 91 64 91.9 72 41% 93 29.97 1011.0
16 11:52 NW 7 10.00 Fair CLR 88 64 45% 89 29.97 1011.2
16 10:52 Vrbl 5 10.00 Fair CLR 84.9 66 53% 87 29.98 1011.5
16 09:52 W 13 10.00 Fair CLR 78.1 64.9 64% 80 29.99 1011.9
16 08:52 NW 12 10.00 Fair CLR 75 62.1 64% 77 29.99 1011.9
16 07:52 NW 7 10.00 Partly Cloudy FEW060 FEW080 SCT110 73 64.9 76% 29.94 1010.2
16 06:52 N 6 10.00 Mostly Cloudy FEW080 BKN100 73 64 82.9 72 74% 29.92 1009.3
16 05:52 E 6 10.00 Light Rain SCT100 73 63 71% 29.93 1009.6
16 04:52 N 10 10.00 Fair CLR 75 59 58% 77 29.89 1008.1
16 03:52 N 18 G 30 10.00 Fair CLR 77 57 50% 79 29.86 1007.1
16 02:52 N 21 G 28 10.00 Fair and Breezy CLR 81 63 54% 82 29.9 1008.1
16 01:52 NW 18 G 36 10.00 Fair CLR 81 62.1 53% 82 29.9 1008.6
16 00:52 NW 18 G 33 8.00 Fair CLR 82.9 63 98.1 77 51% 84 29.92 1009.1
15 23:52 W 6 10.00 Fair CLR 81 68 65% 84 29.86 1007.2
15 22:52 N 6 9.00 Fair CLR 79 66.9 67% 81 29.84 1006.9
15 21:52 E 5 10.00 Fair CLR 84 66.9 57% 87 29.83 1006.4
15 20:52 E 6 9.00 Fair CLR 89.1 66.9 48% 92 29.83 1006.3
15 19:52 SE 8 9.00 Fair CLR 91.9 68 46% 96 29.82 1006.1
15 18:52 SE 7 10.00 Fair CLR 98.1 64 102 89.1 33% 101 29.83 1006.3
15 17:52 SE 6 10.00 Fair CLR 99 63 31% 101 29.85 1006.6
15 16:52 SE 7 10.00 Fair CLR 100.9 57.9 24% 101 29.86 1007.0
15 15:52 S 3 10.00 Fair CLR 99 57 25% 98 29.88 1007.7
15 14:52 Calm 10.00 Fair CLR 98.1 57 25% 97 29.9 1008.4
15 13:52 S 7 9.00 Fair CLR 91 62.1 38% 92 29.92 1009.3
15 12:52 N 5 10.00 A Few Clouds FEW085 90 61 96.1 75 38% 90 29.92 1009.3
15 11:52 N 8 10.00 Fair CLR 91 60.1 35% 91 29.93 1009.5
15 10:52 SW 6 7.00 Fair CLR 87.1 66.9 51% 90 29.94 1010.2
15 09:52 W 10 9.00 Fair CLR 81 64 57% 83 29.95 1010.6
15 08:52 S 8 9.00 Fair CLR 77 61 58% 79 29.91 1009.3
15 07:52 SW 9 10.00 Fair CLR 75.9 59 56% 78 29.92 1009.2
15 06:52 S 12 8.00 Fair CLR 73.9 61 82.9 73 64% 29.91 1008.9
15 05:52 S 12 10.00 Fair CLR 75 61 62% 77 29.9 1008.7
15 04:52 S 10 10.00 Fair CLR 75.9 60.1 58% 78 29.91 1008.9
15 03:52 SW 8 10.00 Fair CLR 79 59 50% 80 29.93 1009.6
15 02:52 S 9 10.00 Fair CLR 79 60.1 52% 80 29.95 1010.2
15 01:52 S 9 10.00 Fair CLR 81 61 51% 82 29.96 1010.4
15 00:52 S 7 10.00 Fair CLR 79 61 97 78.1 54% 80 29.96 1010.8
14 23:52 S 10 10.00 Fair CLR 82.9 61 48% 83 29.96 1010.7
14 22:52 S 8 8.00 Fair CLR 80.1 63 56% 81 29.96 1010.8
14 21:52 SE 7 10.00 Fair CLR 82.9 64 53% 84 29.94 1010.4
14 20:52 S 6 10.00 Fair CLR 89.1 66 47% 92 29.92 1009.4
14 19:52 S 7 10.00 Fair CLR 95 68 41% 100 29.92 1009.7
14 18:52 S 6 10.00 Fair CLR 97 69.1 99 91.9 40% 103 29.94 1010.1
14 17:52 S 9 10.00 Fair CLR 98.1 66 35% 102 29.95 1010.4
14 16:52 S 12 10.00 Fair CLR 97 64 34% 99 29.97 1010.9
14 15:52 S 9 10.00 Fair CLR 96.1 64 35% 98 29.99 1011.6
14 14:52 Calm 10.00 Fair CLR 95 63 35% 96 30 1012.1
14 13:52 E 9 10.00 Fair CLR 95 61 32% 95 30.02 1012.9
14 12:52 NE 10 10.00 Fair CLR 91.9 61 93 69.1 36% 92 30.04 1013.3
14 11:52 Vrbl 3 9.00 Fair CLR 88 62.1 42% 88 30.04 1013.5
14 10:52 Vrbl 3 10.00 Fair CLR 84.9 60.1 43% 85 30.03 1013.4
14 09:52 W 5 10.00 Fair CLR 81 57.9 45% 81 30.04 1013.6
14 08:52 S 12 10.00 Fair CLR 77 57 50% 79 30.02 1013.1
14 07:52 S 9 10.00 Fair CLR 71.1 57.9 63% 30.02 1013.0
14 06:52 SW 12 10.00 Fair CLR 70 57.9 78.1 68 66% 30.01 1012.5
14 05:52 S 12 10.00 Fair CLR 69.1 59 70% 30 1012.4
14 04:52 SW 15 10.00 Fair CLR 73.9 60.1 62% 30 1012.0
Date Time (cdt) Wind (mph) Vis. (mi.) Weather Sky Cond. Air Dwpt Max. Min. Relative Humidity Wind Chill (°F) Heat Index (°F) altimeter (in) sea level (mb) 1 hr 3 hr 6 hr
6 hour
Temperature (ºF) Pressure Precipitation (in)